Yakima, WA
on Saturday, November 24, 2012

Saturday
Previous Day Next Day
Daily Summary
 ActualAverageRecord
Temperature
Mean Temperature °F 34°F  
Max Temperature 52°F 43°F 67°F (1990)
Min Temperature 28°F 25°F -11°F (1985)
Degree Days
Heating Degree Days 25 31  
Month to date heating degree days 525 637  
Since 1 July heating degree days 1062 1341  
Cooling Degree Days 0 0  
Month to date cooling degree days 0 0  
Year to date cooling degree days 667 472  
Moisture
Dew Point 34°F   
Average Humidity 73    
Maximum Humidity 92    
Minimum Humidity 54    
Precipitation
Precipitation 0.00 in 0.04 in 0.83 in (1960)
Month to date precipitation 0.58 0.80  
Year to date precipitation 7.11 6.47  
Snow
Snow 0.00 in 0.20 in 5.70 in (1979)
Month to date snowfall 0.8 2.2  
Year to date snowfall 22.3 10.9  
Since 1 July snowfall 0.8 2.3  
Snow Depth 0.00 in   
Wind
Wind Speed 4 mph   
Max Wind Speed 13 mph   
Max Gust Speed 17 mph   
Visibility 10 miles   
Events     

Key: T is trace of precipitation, MM is missing value
Source: NWS Daily Summary
Time(PST)TemperatureDew PointHumidity Pressure Visibility Wind DirectionWind SpeedGust SpeedPrecipitationEvents Conditions
12:53 AM 41.0°F 37.0°F 86% 30.10 in 10.0 miles Calm Calm - N/A   Overcast
1:53 AM 41.0°F 37.0°F 86% 30.09 in 10.0 miles Calm Calm - N/A   Partly Cloudy
2:53 AM 39.9°F 37.0°F 89% 30.11 in 9.0 miles WSW 5.8 mph - N/A   Clear
3:53 AM 39.0°F 36.0°F 89% 30.12 in 10.0 miles West 6.9 mph - N/A   Clear
4:53 AM 37.0°F 34.0°F 89% 30.13 in 8.0 miles West 8.1 mph - N/A   Clear
5:53 AM 35.1°F 33.1°F 92% 30.15 in 9.0 miles WNW 8.1 mph - N/A   Clear
6:53 AM 33.1°F 30.9°F 92% 30.17 in 9.0 miles WNW 6.9 mph - N/A   Clear
7:53 AM 35.1°F 32.0°F 89% 30.19 in 10.0 miles West 6.9 mph - N/A   Scattered Clouds
8:53 AM 37.0°F 34.0°F 89% 30.21 in 10.0 miles West 4.6 mph - N/A   Scattered Clouds
9:53 AM 44.1°F 37.9°F 79% 30.21 in 10.0 miles WSW 4.6 mph - N/A   Scattered Clouds
10:53 AM 48.9°F 37.9°F 66% 30.21 in 10.0 miles West 4.6 mph - N/A   Scattered Clouds
11:53 AM 50.0°F 36.0°F 59% 30.19 in 10.0 miles Calm Calm - N/A   Mostly Cloudy
12:53 PM 51.1°F 35.1°F 54% 30.18 in 10.0 miles Calm Calm - N/A   Scattered Clouds
1:53 PM 52.0°F 36.0°F 54% 30.17 in 10.0 miles Calm Calm - N/A   Scattered Clouds
2:53 PM 51.1°F 35.1°F 54% 30.17 in 10.0 miles Calm Calm - N/A   Scattered Clouds
3:53 PM 46.9°F 37.9°F 71% 30.17 in 10.0 miles Calm Calm - N/A   Scattered Clouds
4:53 PM 44.1°F 36.0°F 73% 30.18 in 10.0 miles Calm Calm - N/A   Scattered Clouds
5:53 PM 37.9°F 34.0°F 86% 30.18 in 10.0 miles Variable 4.6 mph - N/A   Overcast
6:53 PM 35.1°F 32.0°F 89% 30.19 in 10.0 miles West 4.6 mph - N/A   Scattered Clouds
7:53 PM 37.0°F 30.0°F 76% 30.19 in 10.0 miles Calm Calm - N/A   Mostly Cloudy
8:53 PM 34.0°F 28.9°F 82% 30.20 in 10.0 miles WNW 4.6 mph - N/A   Scattered Clouds
9:53 PM 33.1°F 28.9°F 85% 30.19 in 10.0 miles West 4.6 mph - N/A   Clear
10:53 PM 30.9°F 27.0°F 85% 30.20 in 10.0 miles WNW 4.6 mph - N/A   Clear
11:53 PM 28.9°F 26.1°F 89% 30.21 in 10.0 miles West 4.6 mph - N/A   Clear
Moon Phase
Nov. 24 Nov. 28 Dec. 06 Dec. 13 Dec. 20
Sunrise:07:17 AM (PST) Moon Rise:02:16 PM (PST)11/24
Sunset:04:20 PM (PST) Moon Set:03:29 AM (PST)11/24

Copyright © 2014 The Weather Underground, Inc.